Printer-friendly version

IAU Minor Planet Center

Minor Planet Center

MPEC 2008-J32 : 2008 JV2

The following Minor Planet Electronic Circular may be linked-to from your own Web pages, but must not otherwise be redistributed electronically.


Read MPEC 2008-J31 Read MPEC 2008-J33


M.P.E.C. 2008-J32                                Issued 2008 May 5, 14:24 UT

     The Minor Planet Electronic Circulars contain information on unusual
         minor planets and routine data on comets.  They are published
   on behalf of Commission 20 of the International Astronomical Union by the
          Minor Planet Center, Smithsonian Astrophysical Observatory,
                          Cambridge, MA 02138, U.S.A.

             Prepared using the Tamkin Foundation Computer Network

                              MPC@CFA.HARVARD.EDU
          URL http://www.cfa.harvard.edu/iau/mpc.html  ISSN 1523-6714

                                   2008 JV2

Observations:
     K08J02V* C2008 05 03.37424 15 51 40.81 -16 40 26.7          20.2 V EJ032691
     K08J02V  C2008 05 03.39190 15 51 44.03 -16 41 43.4          20.0 V EJ032691
     K08J02V  C2008 05 03.40955 15 51 47.27 -16 43 01.2          19.9 V EJ032691
     K08J02V  C2008 05 03.57106 15 52 25.64 -16 52 29.3          20.4 R EJ032474
     K08J02V  C2008 05 03.57222 15 52 25.81 -16 52 33.6          20.0 R EJ032474
     K08J02V  C2008 05 03.57350 15 52 26.11 -16 52 38.6                 EJ032474
     K08J02V  C2008 05 03.57477 15 52 26.31 -16 52 44.7          19.2 R EJ032474
     K08J02V  C2008 05 03.57593 15 52 26.54 -16 52 50.1          19.6 R EJ032474
     K08J02V  C2008 05 04.25397015 54 51.79 -17 42 17.4          20.5 V EJ032H55
     K08J02V  C2008 05 04.25996815 54 52.92 -17 42 41.2          20.6 V EJ032H55
     K08J02V  C2008 05 04.26561415 54 53.83 -17 43 03.6          20.6 V EJ032H55
     K08J02V  C2008 05 04.27252 15 54 57.10 -17 43 21.8          19.6 R EJ032H01
     K08J02V  C2008 05 04.27939 15 54 58.24 -17 43 49.6          20.0 R EJ032H01
     K08J02V  C2008 05 04.28403 15 54 59.02 -17 44 08.5          20.1 R EJ032H01
     K08J02V  C2008 05 04.44838 15 55 33.67 -17 52 37.5          20.6 R EJ032474
     K08J02V  C2008 05 04.45046 15 55 34.09 -17 52 46.1          20.2 R EJ032474
     K08J02V  C2008 05 04.45243 15 55 34.45 -17 52 54.4          19.5 R EJ032474
     K08J02V  C2008 05 04.45451 15 55 34.75 -17 53 03.0                 EJ032474
     K08J02V  C2008 05 05.28145 15 58 11.02 -18 46 47.4          20.1 R EJ032H01
     K08J02V  C2008 05 05.29314 15 58 12.72 -18 47 29.8          19.9 R EJ032H01
     K08J02V  C2008 05 05.30134 15 58 13.90 -18 47 59.4          19.9 R EJ032H01
     K08J02V  C2008 05 05.30961 15 58 15.09 -18 48 29.0          20.0 R EJ032H01
     K08J02V  C2008 05 05.31899 15 58 16.94 -18 48 59.6          21.3 V EJ032291
     K08J02V  C2008 05 05.32350 15 58 17.56 -18 49 16.1          21.2 V EJ032291
     K08J02V  C2008 05 05.32361 15 58 17.09 -18 49 19.2          20.1 R EJ032H01
     K08J02V  C2008 05 05.32831 15 58 18.25 -18 49 33.0          21.4 V EJ032291
     K08J02V  C2008 05 05.32895 15 58 17.85 -18 49 38.0          20.1 R EJ032H01
     K08J02V  C2008 05 05.35333 15 58 21.72 -18 51 03.1          20.1 V EJ032G96
     K08J02V  C2008 05 05.35874 15 58 22.47 -18 51 21.8          19.8 V EJ032G96
     K08J02V  C2008 05 05.36416 15 58 23.26 -18 51 40.9          19.7 V EJ032G96
     K08J02V  C2008 05 05.36966 15 58 24.02 -18 52 00.2          20.0 V EJ032G96
     K08J02V  C2008 05 05.46793 15 58 45.50 -18 55 35.6          19.6 R EJ032474
     K08J02V  C2008 05 05.46979 15 58 45.78 -18 55 43.3                 EJ032474
     K08J02V  C2008 05 05.47164 15 58 46.11 -18 55 49.4          20.1 R EJ032474
     K08J02V  C2008 05 05.47338 15 58 46.36 -18 55 55.4          20.0 R EJ032474

Observer details:
291 LPL/Spacewatch II.  Observer J. V. Scotti.  1.8-m f/2.7 reflector + CCD.
474 Mount John Observatory, Lake Tekapo.  Observer A. C. Gilmore.  Measurer
    P. M. Kilmartin.  1.0-m f/7.7 reflector + CCD.
691 Steward Observatory, Kitt Peak.  Observer J. V. Scotti.  0.9-m f/3
    reflector + CCD.
G96 Mt. Lemmon Survey.  Observer A. D. Grauer.  Measurers E. C. Beshore,
    A. Boattini, G. J. Garradd, A. R. Gibbs, A. D. Grauer, R. E. Hill,
    R. A. Kowalski, S. M. Larson, R. H. McNaught.  1.5-m reflector + CCD.
H01 Magdalena Ridge Observatory, Socorro.  Observer W. H. Ryan.  2.4-m f/8.9
    reflector + CCD.
H55 Astronomical Research Observatory, Charleston.  Observer R. Holmes.
    0.61-m f/4.0 astrograph + CCD.

Orbital elements:
2008 JV2                                                 Earth MOID = 0.0289 AU
Epoch 2008 May 14.0 TT = JDT 2454600.5                  MPC
M  14.10009              (2000.0)            P               Q
n   0.32652989     Peri.  138.30472     -0.99193138     +0.11972673
a   2.0885943      Node    48.62155     -0.12596280     -0.89358673
e   0.5188592      Incl.    3.18462     -0.01433562     -0.43262949
P   3.02           H   24.8           G   0.15           U   7
Residuals in seconds of arc
080503 691  0.0   0.3-    080504 H01  0.1-  0.3+    080505 H01  0.1-  0.1-
080503 691  0.2-  0.6+    080504 H01  0.0   0.2+    080505 291  0.1-  0.3+
080503 691  0.2-  0.3-    080504 474  0.6-  0.6+    080505 H01  0.1-  0.2+
080503 474  0.7+  0.4-    080504 474  0.2+  0.3+    080505 G96  0.2+  0.3-
080503 474  0.0   0.3+    080504 474  0.5+  0.0     080505 G96  0.0   0.1+
080503 474  1.0+  0.9+    080504 474  0.4-  0.3-    080505 G96  0.3+  0.1+
080503 474  0.5+  0.3+    080505 H01  0.1+  0.0     080505 G96  0.1+  0.1+
080503 474  0.7+  0.1-    080505 H01  0.1+  0.0     080505 474  0.1-  0.0
080504 H55  1.7-  1.3-    080505 H01  0.0   0.1-    080505 474  0.1-  1.0-
080504 H55  0.2+  1.0-    080505 H01  0.0   0.0     080505 474  0.6+  0.5-
080504 H55  0.3-  0.7-    080505 291  0.1+  0.3+    080505 474  0.4+  0.3-
080504 H01  0.1-  0.2+    080505 291  0.2-  0.0

Ephemeris:
2008 JV2                 a,e,i = 2.09, 0.52, 3                   q = 1.0049
Date    TT    R. A. (2000) Decl.     Delta      r     Elong.  Phase     V
2008 05 04    15 53.96   -17 23.5    0.0780   1.083   163.5    15.3    20.3
2008 05 05    15 57.28   -18 28.4    0.0824   1.088   163.6    15.2    20.4
2008 05 06    16 00.24   -19 26.5    0.0868   1.093   163.8    15.0    20.5
2008 05 07    16 02.89   -20 18.6    0.0913   1.097   164.0    14.7    20.6
2008 05 08    16 05.28   -21 05.5    0.0959   1.102   164.3    14.4    20.7
2008 05 09    16 07.42   -21 47.9    0.101    1.107   164.6    14.0    20.8
2008 05 10    16 09.35   -22 26.3    0.105    1.112   165.0    13.6    20.9
2008 05 11    16 11.09   -23 01.1    0.110    1.117   165.4    13.2    21.0
2008 05 12    16 12.67   -23 32.8    0.115    1.122   165.8    12.8    21.1
2008 05 13    16 14.09   -24 01.7    0.120    1.127   166.3    12.3    21.2
2008 05 14    16 15.37   -24 28.0    0.125    1.133   166.8    11.8    21.3
2008 05 15    16 16.53   -24 52.1    0.130    1.138   167.3    11.3    21.3
2008 05 16    16 17.58   -25 14.1    0.135    1.144   167.8    10.7    21.4
2008 05 17    16 18.53   -25 34.3    0.140    1.149   168.4    10.2    21.5
2008 05 18    16 19.39   -25 52.7    0.146    1.155   169.0     9.6    21.6
2008 05 19    16 20.17   -26 09.7    0.151    1.160   169.5     9.1    21.6
2008 05 20    16 20.88   -26 25.2    0.156    1.166   170.1     8.6    21.7
2008 05 21    16 21.52   -26 39.4    0.162    1.172   170.7     8.1    21.8
2008 05 22    16 22.11   -26 52.5    0.167    1.178   171.2     7.5    21.8
2008 05 23    16 22.64   -27 04.5    0.173    1.184   171.7     7.1    21.9
2008 05 24    16 23.12   -27 15.5    0.179    1.190   172.2     6.6    21.9

Timothy B. Spahr             (C) Copyright 2008 MPC           M.P.E.C. 2008-J32

Read MPEC 2008-J31 Read MPEC 2008-J33


Our Web policy. Index to the CBAT/MPC/ICQ pages.


Valid HTML 4.01!